Location: New Greens
(51.7702°N, 0.3379°W)
Time: 10:53:43
(UTC+00:00)

Envisat - Pass Details

Date: 02 February 2019
Orbit: 764 x 766 km, 98.2° (Epoch: 22 April)

Event Time Altitude Azimuth Distance (km) Brightness Sun altitude
Rises 20:00:57 0° 211° (SSW) 3,221 6.5 -29.3°
Reaches altitude 10° 20:04:00 10° 230° (SW) 2,302 5.9 -29.8°
Maximum altitude 20:07:23 18° 272° (W) 1,829 5.7 -30.3°
Drops below altitude 10° 20:10:47 10° 315° (NW) 2,314 6.1 -30.8°
Sets 20:13:52 0° 334° (NNW) 3,247 6.7 -31.3°
